Terminal Aerodrome Forecast
Issued by NWS Goodland, KS

Home | Current Version | Previous Version | Text Only | Print | Product List | Glossary On
Versions: 1 2 3 4 5 6 7 8 9 10 11 12 13 14 15 16 17 18 19 20 21 22 23 24 25
000
FTUS43 KGLD 161120
TAFGLD
TAF
KGLD 161120Z 1612/1712 19009KT 6SM BR OVC020
     FM161500 20012KT P6SM BKN030
     FM161700 21013G20KT P6SM SKC
     FM162200 18008KT P6SM SKC
     FM170700 24005KT P6SM SKC=

USA.gov is the U.S. government's official web portal to all federal, state and local government web resources and services.